When you browse on this site, cookies collect data to enhance your experience and personalize the content and advertising you see.
Visit our Privacy Policy to learn more. By continuing to use the site, you agree to this use of cookies and data.

Hourly Weather San Juan

Today, 7 July, Tuesday

Time Temperature Precipitation Wind Pressure Humidity
00:00 +7°C° 0 mm 1 mps 706 mmHg 59%
01:00 +6°C° 0 mm 1 mps 706 mmHg 61%
02:00 +6°C° 0 mm 1 mps 706 mmHg 64%
03:00 +5°C° 0 mm 1 mps 706 mmHg 67%
04:00 +3°C° 0 mm 0 mps 706 mmHg 70%
05:00 +3°C° 0 mm 0 mps 706 mmHg 69%
06:00 +3°C° 0 mm 0 mps 706 mmHg 69%
07:00 +3°C° 0 mm 0 mps 707 mmHg 69%
08:00 +6°C° 0 mm 1 mps 707 mmHg 62%
09:00 +7°C° 0 mm 2 mps 707 mmHg 55%
10:00 +10°C° 0 mm 2 mps 708 mmHg 48%
11:00 +10°C° 0 mm 2 mps 707 mmHg 46%
12:00 +12°C° 0 mm 2 mps 706 mmHg 44%
13:00 +13°C° 0 mm 1 mps 705 mmHg 42%
14:00 +13°C° 0 mm 1 mps 706 mmHg 41%
15:00 +13°C° 0 mm 1 mps 706 mmHg 40%
16:00 +13°C° 0 mm 1 mps 706 mmHg 40%
17:00 +11°C° 0 mm 1 mps 706 mmHg 45%
18:00 +10°C° 0 mm 1 mps 707 mmHg 50%
19:00 +8°C° 0 mm 1 mps 707 mmHg 56%
20:00 +8°C° 0 mm 1 mps 707 mmHg 55%
21:00 +8°C° 0 mm 1 mps 707 mmHg 55%
22:00 +7°C° 0 mm 1 mps 707 mmHg 54%
23:00 +6°C° 0 mm 2 mps 707 mmHg 51%

Tomorrow, 8 July, Wednesday

Time Temperature Precipitation Wind Pressure Humidity
00:00 +5°C° 0 mm 3 mps 706 mmHg 47%
01:00 +7°C° 0 mm 3 mps 706 mmHg 44%
02:00 +6°C° 0 mm 4 mps 705 mmHg 43%
03:00 +6°C° 0 mm 4 mps 705 mmHg 42%
04:00 +6°C° 0 mm 5 mps 704 mmHg 41%
05:00 +6°C° 0 mm 5 mps 704 mmHg 40%
06:00 +6°C° 0 mm 5 mps 704 mmHg 39%
07:00 +6°C° 0 mm 5 mps 705 mmHg 38%
08:00 +10°C° 0 mm 4 mps 705 mmHg 31%
09:00 +13°C° 0 mm 3 mps 705 mmHg 25%
10:00 +17°C° 0 mm 2 mps 706 mmHg 18%
11:00 +15°C° 0 mm 4 mps 705 mmHg 22%
12:00 +15°C° 0 mm 6 mps 705 mmHg 25%
13:00 +14°C° 0 mm 7 mps 704 mmHg 29%
14:00 +14°C° 0 mm 7 mps 705 mmHg 31%
15:00 +12°C° 0 mm 7 mps 706 mmHg 34%
16:00 +11°C° 0 mm 7 mps 706 mmHg 36%
17:00 +10°C° 0 mm 6 mps 707 mmHg 41%
18:00 +10°C° 0 mm 4 mps 707 mmHg 45%
19:00 +8°C° 0 mm 3 mps 708 mmHg 50%
20:00 +8°C° 0 mm 3 mps 708 mmHg 52%
21:00 +7°C° 0 mm 3 mps 708 mmHg 55%
22:00 +7°C° 0 mm 3 mps 709 mmHg 57%
23:00 +7°C° 0 mm 2 mps 709 mmHg 59%

Day after tomorrow, 9 July, Thursday

Time Temperature Precipitation Wind Pressure Humidity
00:00 +6°C° 0 mm 2 mps 708 mmHg 62%
01:00 +7°C° 0 mm 1 mps 708 mmHg 64%
02:00 +6°C° 0 mm 1 mps 708 mmHg 68%
03:00 +5°C° 0 mm 1 mps 707 mmHg 71%
04:00 +3°C° 0 mm 0 mps 707 mmHg 75%
05:00 +3°C° 0 mm 0 mps 707 mmHg 75%
06:00 +3°C° 0 mm 0 mps 707 mmHg 74%
07:00 +3°C° 0 mm 0 mps 707 mmHg 74%
08:00 +6°C° 0 mm 0 mps 707 mmHg 65%
09:00 +9°C° 0 mm 1 mps 707 mmHg 56%
10:00 +11°C° 0 mm 1 mps 707 mmHg 47%
11:00 +12°C° 0 mm 1 mps 707 mmHg 43%
12:00 +13°C° 0 mm 2 mps 706 mmHg 38%
13:00 +15°C° 0 mm 2 mps 705 mmHg 34%
14:00 +15°C° 0 mm 2 mps 705 mmHg 33%
15:00 +15°C° 0 mm 2 mps 704 mmHg 32%
16:00 +15°C° 0 mm 2 mps 704 mmHg 31%
17:00 +14°C° 0 mm 2 mps 704 mmHg 34%
18:00 +12°C° 0 mm 2 mps 704 mmHg 37%
19:00 +10°C° 0 mm 2 mps 704 mmHg 40%
20:00 +9°C° 0 mm 2 mps 704 mmHg 44%
21:00 +8°C° 0 mm 2 mps 703 mmHg 48%
22:00 +9°C° 0 mm 1 mps 703 mmHg 51%
23:00 +8°C° 0 mm 1 mps 703 mmHg 55%

10 July, Friday

Time Temperature Precipitation Wind Pressure Humidity
00:00 +8°C° 0 mm 1 mps 703 mmHg 59%
01:00 +7°C° 0 mm 1 mps 703 mmHg 62%
02:00 +7°C° 0 mm 1 mps 703 mmHg 62%
03:00 +7°C° 0 mm 1 mps 703 mmHg 61%
04:00 +7°C° 0 mm 1 mps 703 mmHg 61%
05:00 +7°C° 0 mm 1 mps 704 mmHg 60%
06:00 +6°C° 0 mm 2 mps 704 mmHg 60%
07:00 +6°C° 0 mm 2 mps 705 mmHg 59%
08:00 +8°C° 0 mm 2 mps 705 mmHg 52%
09:00 +11°C° 0 mm 1 mps 706 mmHg 46%
10:00 +13°C° 0 mm 1 mps 706 mmHg 39%
11:00 +14°C° 0 mm 1 mps 705 mmHg 36%
12:00 +16°C° 0 mm 2 mps 705 mmHg 33%
13:00 +17°C° 0 mm 2 mps 705 mmHg 30%
14:00 +17°C° 0 mm 2 mps 704 mmHg 31%
15:00 +16°C° 0 mm 2 mps 704 mmHg 31%
16:00 +16°C° 0 mm 3 mps 704 mmHg 32%
17:00 +14°C° 0 mm 2 mps 704 mmHg 37%
18:00 +12°C° 0 mm 1 mps 704 mmHg 42%
19:00 +10°C° 0 mm 1 mps 704 mmHg 47%
20:00 +10°C° 0 mm 1 mps 704 mmHg 46%
21:00 +9°C° 0 mm 2 mps 703 mmHg 45%
22:00 +9°C° 0 mm 2 mps 703 mmHg 43%
23:00 +9°C° 0 mm 2 mps 702 mmHg 43%

11 July, Saturday

Time Temperature Precipitation Wind Pressure Humidity
00:00 +9°C° 0 mm 2 mps 702 mmHg 44%
01:00 +9°C° 0 mm 1 mps 701 mmHg 44%
02:00 +9°C° 0 mm 1 mps 701 mmHg 46%
03:00 +8°C° 0 mm 1 mps 700 mmHg 48%
04:00 +8°C° 0 mm 1 mps 699 mmHg 50%
05:00 +8°C° 0 mm 1 mps 700 mmHg 48%
06:00 +8°C° 0 mm 1 mps 700 mmHg 45%
07:00 +8°C° 0 mm 1 mps 700 mmHg 43%
08:00 +11°C° 0 mm 1 mps 700 mmHg 37%
09:00 +14°C° 0 mm 1 mps 701 mmHg 31%
10:00 +18°C° 0 mm 1 mps 701 mmHg 25%
11:00 +19°C° 0 mm 1 mps 701 mmHg 22%
12:00 +21°C° 0 mm 1 mps 700 mmHg 20%
13:00 +22°C° 0 mm 1 mps 700 mmHg 17%
14:00 +22°C° 0 mm 1 mps 700 mmHg 17%
15:00 +21°C° 0 mm 2 mps 700 mmHg 18%
16:00 +21°C° 0 mm 2 mps 700 mmHg 18%
17:00 +19°C° 0 mm 2 mps 701 mmHg 22%
18:00 +17°C° 0 mm 3 mps 701 mmHg 25%
19:00 +14°C° 0 mm 3 mps 701 mmHg 29%
20:00 +13°C° 0 mm 3 mps 702 mmHg 30%
21:00 +13°C° 0 mm 3 mps 703 mmHg 32%
22:00 +12°C° 0 mm 3 mps 703 mmHg 33%
23:00 +12°C° 0 mm 3 mps 704 mmHg 35%

12 July, Sunday

Time Temperature Precipitation Wind Pressure Humidity
00:00 +12°C° 0 mm 4 mps 704 mmHg 37%
01:00 +11°C° 0 mm 4 mps 705 mmHg 39%
02:00 +10°C° 0 mm 4 mps 705 mmHg 45%
03:00 +9°C° 0 mm 5 mps 705 mmHg 51%
04:00 +8°C° 0 mm 5 mps 705 mmHg 58%
05:00 +7°C° 0 mm 5 mps 705 mmHg 59%
06:00 +6°C° 0 mm 4 mps 705 mmHg 60%
07:00 +5°C° 0 mm 3 mps 706 mmHg 62%
08:00 +7°C° 0 mm 4 mps 706 mmHg 55%
09:00 +8°C° 0 mm 4 mps 706 mmHg 49%
10:00 +10°C° 0 mm 4 mps 706 mmHg 43%
11:00 +11°C° 0 mm 3 mps 705 mmHg 40%
12:00 +12°C° 0 mm 3 mps 705 mmHg 38%
13:00 +13°C° 0 mm 3 mps 704 mmHg 35%
14:00 +14°C° 0 mm 2 mps 704 mmHg 35%
15:00 +14°C° 0 mm 2 mps 704 mmHg 35%
16:00 +14°C° 0 mm 2 mps 704 mmHg 35%
17:00 +12°C° 0 mm 2 mps 704 mmHg 38%
18:00 +10°C° 0 mm 2 mps 704 mmHg 41%
19:00 +10°C° 0 mm 1 mps 704 mmHg 45%
20:00 +9°C° 0 mm 1 mps 704 mmHg 47%
21:00 +8°C° 0 mm 1 mps 704 mmHg 48%
22:00 +8°C° 0 mm 1 mps 704 mmHg 50%
23:00 +8°C° 0 mm 1 mps 704 mmHg 52%
Show more